User: anonymous   Login
Location: Observatoire
(46.1952°N, 5.3391°E)
Time: 07:39:34
(UTC+02:00)
Language:

AO-91 - Orbit

View from above orbital plane
View from above orbital plane
View from above satellite
View from above satellite

Ground track
Ground track

The orbit data is extracted from the following two-line orbital elements,

1 43017U 17073E   24106.57807346  .00011035  00000-0  69902-3 0  9995
2 43017  97.5875 344.3196 0216396 142.5246 219.1287 14.91716550346326
Epoch (UTC): 15 April 2024 13:52:25
Eccentricity: 0.0216396
inclination: 97.5875°
perigee height: 442 km
apogee height: 743 km
right ascension of ascending node: 344.3196°
argument of perigee: 142.5246°
revolutions per day: 14.91716550
mean anomaly at epoch: 219.1287°
orbit number at epoch: 34632

The dashed part of the orbit path shows where the satellite is in the earth's shadow,  

DLR